TimeEDT,TemperatureF,Dew PointF,Humidity,Sea Level PressureIn,VisibilityMPH,Wind Direction,Wind SpeedMPH,Gust SpeedMPH,PrecipitationIn,Events,Conditions,WindDirDegrees,DateUTC
12:57 AM,64.0,41.0,43,30.02,10.0,NNE,9.2,-,N/A,,Mostly Cloudy,30,2013-05-13 04:57:00
1:57 AM,62.1,37.0,39,30.01,10.0,NNE,8.1,-,N/A,,Scattered Clouds,20,2013-05-13 05:57:00
2:57 AM,61.0,35.1,38,30.02,10.0,North,9.2,-,N/A,,Clear,10,2013-05-13 06:57:00
3:57 AM,59.0,37.0,44,30.02,10.0,North,4.6,-,N/A,,Overcast,350,2013-05-13 07:57:00
4:57 AM,57.0,37.9,49,30.02,10.0,NNW,5.8,-,N/A,,Partly Cloudy,340,2013-05-13 08:57:00
5:57 AM,55.9,37.9,51,30.04,10.0,North,8.1,-,N/A,,Partly Cloudy,350,2013-05-13 09:57:00
6:57 AM,55.9,41.0,57,30.05,10.0,North,9.2,-,N/A,,Partly Cloudy,350,2013-05-13 10:57:00
7:57 AM,60.1,46.0,60,30.06,10.0,North,9.2,-,N/A,,Mostly Cloudy,10,2013-05-13 11:57:00
8:57 AM,63.0,46.0,54,30.07,10.0,North,12.7,-,N/A,,Overcast,10,2013-05-13 12:57:00
9:57 AM,64.0,43.0,46,30.07,10.0,NNE,16.1,23.0,N/A,,Overcast,20,2013-05-13 13:57:00
10:57 AM,64.9,46.0,50,30.09,10.0,North,11.5,20.7,N/A,,Overcast,10,2013-05-13 14:57:00
11:57 AM,66.0,45.0,47,30.09,10.0,North,11.5,20.7,N/A,,Overcast,10,2013-05-13 15:57:00
12:57 PM,66.0,45.0,47,30.09,10.0,NNE,10.4,18.4,N/A,,Mostly Cloudy,20,2013-05-13 16:57:00
1:57 PM,68.0,43.0,40,30.07,10.0,North,11.5,18.4,N/A,,Scattered Clouds,10,2013-05-13 17:57:00
2:57 PM,69.1,41.0,36,30.05,10.0,NW,10.4,20.7,N/A,,Scattered Clouds,310,2013-05-13 18:57:00
4:57 PM,69.1,35.1,29,30.02,10.0,NW,10.4,-,N/A,,Scattered Clouds,310,2013-05-13 20:57:00
5:57 PM,69.1,34.0,27,30.02,10.0,NW,9.2,-,N/A,,Partly Cloudy,320,2013-05-13 21:57:00
6:57 PM,66.9,33.1,28,30.03,10.0,NNW,11.5,16.1,N/A,,Partly Cloudy,330,2013-05-13 22:57:00
7:57 PM,63.0,33.1,33,30.06,10.0,NNW,5.8,-,N/A,,Clear,340,2013-05-13 23:57:00
8:57 PM,60.1,34.0,38,30.10,10.0,North,3.5,-,N/A,,Clear,360,2013-05-14 00:57:00
9:57 PM,54.0,36.0,51,30.14,10.0,Calm,Calm,-,N/A,,Clear,0,2013-05-14 01:57:00
10:57 PM,51.1,37.0,59,30.15,10.0,Calm,Calm,-,N/A,,Clear,0,2013-05-14 02:57:00
11:57 PM,50.0,39.0,66,30.17,10.0,North,5.8,-,N/A,,Clear,360,2013-05-14 03:57:00